Savannah, GA

6:00 AM EDT on May 26, 2018 (GMT -0400)
Savannah International

Weather History for KSAV - August, 2014

Change the Weather History Date:

Sunday, August 10, 2014

  Actual Average Record
Temperature  
Mean Temperature 83 °F 82 °F  
Max Temperature 92 °F 91 °F 100 °F (1987)
Min Temperature 74 °F 73 °F 63 °F (1879)
Degree Days  
Heating Degree Days 0 0  
Month to date heating degree days 0 0  
Since 1 June heating degree days 0 0  
Since 1 July heating degree days 0 0  
Cooling Degree Days 18 17  
Month to date cooling degree days 182 171  
Year to date cooling degree days 1725 1566  
Since 1 June cooling degree days 1236 1163  
Growing Degree Days 32 (Base 50)    
Moisture  
Dew Point 73 °F    
Average Humidity 75    
Maximum Humidity 94    
Minimum Humidity 56    
Precipitation  
Precipitation 0.23 in 0.21 in 1.92 in (1927)
Month to date precipitation 2.74 2.14  
Year to date precipitation 34.39 29.95  
Sea Level Pressure  
Sea Level Pressure 30.00 in    
Wind  
Wind Speed 3 mph (SW)    
Max Wind Speed 8 mph    
Max Gust Speed 9 mph    
Visibility 9 miles    
Events Rain , Thunderstorm    
T = Trace of Precipitation, MM = Missing Value Source: NWS Daily Summary

Daily Weather History Graph

Daily Weather History Graph

Search for Another Location

Airport or City:

Astronomy

Aug. 10, 2014 Rise Set
Actual Time 6:45 AM EDT 8:13 PM EDT
Civil Twilight 6:19 AM EDT 8:39 PM EDT
Nautical Twilight 5:48 AM EDT 9:11 PM EDT
Astronomical Twilight 5:15 AM EDT 9:43 PM EDT
Moon 8:04 PM EDT (8/10) 6:33 AM EDT (8/10)
Length of Visible Light 14h 20m
Length of Day
13h 28m
Full, 100% of the Moon is Illuminated
Aug 10
Full
Aug 10
Full
Aug 17
Last Quarter
Aug 25
New
Sep 2
First Quarter

Hourly Weather History & Observations

Time (EDT) Temp. Heat Index Dew Point Humidity Pressure Visibility Wind Dir Wind Speed Gust Speed Precip Events Conditions
12:53 AM 77.0 °F - 73.0 °F 88% 30.03 in 10.0 mi Calm Calm - N/A   Mostly Cloudy
1:53 AM 77.0 °F - 72.0 °F 84% 30.00 in 10.0 mi Calm Calm - N/A   Clear
2:53 AM 75.0 °F - 72.0 °F 90% 29.98 in 10.0 mi Calm Calm - N/A   Clear
3:53 AM 75.0 °F - 72.0 °F 90% 29.98 in 10.0 mi Calm Calm - N/A   Clear
4:53 AM 73.9 °F - 72.0 °F 93% 29.97 in 8.0 mi Calm Calm - N/A   Clear
5:53 AM 73.9 °F - 72.0 °F 93% 29.98 in 10.0 mi South 4.6 mph - N/A   Scattered Clouds
6:53 AM 73.9 °F - 72.0 °F 93% 29.99 in 10.0 mi South 3.5 mph - N/A   Mostly Cloudy
7:53 AM 75.9 °F - 73.0 °F 91% 30.01 in 10.0 mi WSW 3.5 mph - N/A   Mostly Cloudy
8:53 AM 77.0 °F - 73.0 °F 88% 30.04 in 10.0 mi NW 3.5 mph - N/A   Mostly Cloudy
9:53 AM 78.1 °F - 73.0 °F 84% 30.05 in 10.0 mi NW 4.6 mph - N/A   Mostly Cloudy
10:53 AM 82.9 °F 90.2 °F 75.0 °F 77% 30.04 in 10.0 mi NNW 5.8 mph - N/A   Overcast
11:53 AM 86.0 °F 95.1 °F 75.0 °F 70% 30.04 in 10.0 mi WNW 4.6 mph - N/A   Mostly Cloudy
12:53 PM 84.9 °F 93.3 °F 75.0 °F 72% 30.03 in 10.0 mi Calm Calm - N/A   Mostly Cloudy
1:53 PM 87.1 °F 95.4 °F 73.9 °F 65% 30.01 in 10.0 mi Calm Calm - N/A   Mostly Cloudy
2:53 PM 89.1 °F 98.0 °F 73.9 °F 61% 29.99 in 10.0 mi Calm Calm - N/A   Mostly Cloudy
3:53 PM 91.0 °F 99.3 °F 73.0 °F 55% 29.96 in 10.0 mi WNW 4.6 mph - N/A   Mostly Cloudy
4:53 PM 90.0 °F 96.9 °F 72.0 °F 55% 29.95 in 10.0 mi WSW 3.5 mph - N/A   Mostly Cloudy
5:53 PM 87.1 °F 95.4 °F 73.9 °F 65% 29.95 in 10.0 mi ENE 3.5 mph - 0.00 in Rain , Thunderstorm Light Thunderstorms and Rain
6:12 PM 78.8 °F - 71.6 °F 78% 29.97 in 10.0 mi SW 15.0 mph 25.3 mph 0.00 in Rain , Thunderstorm Light Thunderstorms and Rain
6:50 PM 77.0 °F - 73.4 °F 89% 29.99 in 5.0 mi SSE 11.5 mph - 0.00 in Rain , Thunderstorm Light Thunderstorms and Rain
6:53 PM 77.0 °F - 73.9 °F 90% 29.98 in 5.0 mi SE 11.5 mph - 0.00 in Rain , Thunderstorm Light Thunderstorms and Rain
7:00 PM 77.0 °F - 73.4 °F 89% 29.98 in 10.0 mi SSE 10.4 mph - 0.00 in Rain , Thunderstorm Light Thunderstorms and Rain
7:10 PM 75.2 °F - 73.4 °F 94% 29.99 in 10.0 mi East 6.9 mph - 0.00 in   Overcast
7:53 PM 75.0 °F - 72.0 °F 90% 29.99 in 3.0 mi East 3.5 mph - 0.11 in Rain Light Rain
8:00 PM 75.2 °F - 71.6 °F 89% 29.98 in 7.0 mi East 6.9 mph - 0.01 in Rain Light Rain
8:53 PM 75.0 °F - 72.0 °F 90% 30.00 in 10.0 mi ENE 3.5 mph - 0.02 in Rain Light Rain
9:53 PM 75.9 °F - 73.0 °F 91% 30.01 in 9.0 mi WNW 3.5 mph - 0.01 in Rain Light Rain
10:53 PM 75.0 °F - 73.0 °F 94% 29.99 in 9.0 mi West 3.5 mph - 0.08 in Rain Light Rain
11:53 PM 75.0 °F - 73.0 °F 94% 29.99 in 9.0 mi NE 5.8 mph - 0.01 in Rain Light Rain